When you browse on this site, cookies collect data to enhance your experience and personalize the content and advertising you see.
Visit our Privacy Policy to learn more. By continuing to use the site, you agree to this use of cookies and data.
  • în România
  • Lista ţărilor
  • Pe 7 zile
  • Temperatura apei
  • Hartă satelitară
  • Meteo pe hartă
  • Widget-uri
  • user-avatar
    Intrare

    Meteo pe oră la Nha Trang

    Astăzi, 20 Ianuarie, Duminică

    Timp Temperatura Precipitaţii Vânt Presiune Umiditate
    00:00 +22°C° 0 mm 3 m/s 750 mmHg 89%
    01:00 +22°C° 0 mm 3 m/s 750 mmHg 89%
    02:00 +22°C° 0 mm 3 m/s 750 mmHg 89%
    03:00 +22°C° 0 mm 3 m/s 749 mmHg 89%
    04:00 +22°C° 0 mm 3 m/s 749 mmHg 90%
    05:00 +22°C° 0 mm 3 m/s 749 mmHg 88%
    06:00 +22°C° 0 mm 3 m/s 750 mmHg 87%
    07:00 +24°C° 0 mm 3 m/s 750 mmHg 86%
    08:00 +26°C° 0 mm 3 m/s 750 mmHg 78%
    09:00 +28°C° 0 mm 3 m/s 750 mmHg 69%
    10:00 +30°C° 0 mm 4 m/s 750 mmHg 61%
    11:00 +30°C° 0 mm 4 m/s 749 mmHg 60%
    12:00 +32°C° 0 mm 4 m/s 749 mmHg 58%
    13:00 +32°C° 0 mm 4 m/s 748 mmHg 56%
    14:00 +32°C° 0 mm 4 m/s 748 mmHg 60%
    15:00 +30°C° 0 mm 4 m/s 748 mmHg 64%
    16:00 +29°C° 0 mm 4 m/s 748 mmHg 68%
    17:00 +27°C° 0 mm 4 m/s 748 mmHg 76%
    18:00 +26°C° 0 mm 4 m/s 748 mmHg 84%
    19:00 +24°C° 0 mm 3 m/s 748 mmHg 91%
    20:00 +24°C° 0 mm 3 m/s 749 mmHg 91%
    21:00 +24°C° 0 mm 3 m/s 749 mmHg 91%
    22:00 +24°C° 0 mm 3 m/s 750 mmHg 91%
    23:00 +24°C° 0 mm 3 m/s 750 mmHg 91%

    Mâine, 21 Ianuarie, Luni

    Timp Temperatura Precipitaţii Vânt Presiune Umiditate
    00:00 +24°C° 0 mm 3 m/s 749 mmHg 90%
    01:00 +24°C° 0 mm 3 m/s 749 mmHg 90%
    02:00 +22°C° 0 mm 3 m/s 749 mmHg 90%
    03:00 +22°C° 0 mm 3 m/s 749 mmHg 90%
    04:00 +22°C° 0 mm 3 m/s 748 mmHg 90%
    05:00 +22°C° 0 mm 3 m/s 749 mmHg 89%
    06:00 +22°C° 0 mm 3 m/s 749 mmHg 87%
    07:00 +24°C° 0 mm 3 m/s 749 mmHg 86%
    08:00 +25°C° 0 mm 4 m/s 750 mmHg 78%
    09:00 +27°C° 0 mm 4 m/s 750 mmHg 70%
    10:00 +29°C° 0 mm 4 m/s 750 mmHg 62%
    11:00 +30°C° 0 mm 4 m/s 750 mmHg 61%
    12:00 +30°C° 0 mm 4 m/s 749 mmHg 59%
    13:00 +32°C° 0 mm 4 m/s 748 mmHg 58%
    14:00 +30°C° 0.1 mm 4 m/s 748 mmHg 62%
    15:00 +29°C° 0.1 mm 5 m/s 748 mmHg 67%
    16:00 +28°C° 0.1 mm 5 m/s 747 mmHg 72%
    17:00 +27°C° 0.2 mm 5 m/s 748 mmHg 78%
    18:00 +26°C° 0.2 mm 5 m/s 749 mmHg 85%
    19:00 +25°C° 0.2 mm 5 m/s 749 mmHg 91%
    20:00 +23°C° 0.4 mm 5 m/s 750 mmHg 92%
    21:00 +23°C° 0.4 mm 5 m/s 750 mmHg 92%
    22:00 +23°C° 0.4 mm 5 m/s 750 mmHg 93%
    23:00 +23°C° 0.4 mm 5 m/s 750 mmHg 93%

    Poimâine, 22 Ianuarie, Marţi

    Timp Temperatura Precipitaţii Vânt Presiune Umiditate
    00:00 +23°C° 0.4 mm 4 m/s 750 mmHg 93%
    01:00 +23°C° 0.4 mm 4 m/s 750 mmHg 94%
    02:00 +23°C° 0.2 mm 4 m/s 749 mmHg 94%
    03:00 +23°C° 0.2 mm 4 m/s 749 mmHg 94%
    04:00 +22°C° 0.2 mm 5 m/s 749 mmHg 94%
    05:00 +23°C° 0.2 mm 5 m/s 749 mmHg 94%
    06:00 +23°C° 0.2 mm 5 m/s 749 mmHg 93%
    07:00 +23°C° 0.2 mm 5 m/s 750 mmHg 93%
    08:00 +23°C° 0.4 mm 5 m/s 750 mmHg 90%
    09:00 +25°C° 0.4 mm 5 m/s 751 mmHg 88%
    10:00 +26°C° 0.4 mm 6 m/s 751 mmHg 85%
    11:00 +26°C° 0.6 mm 6 m/s 751 mmHg 84%
    12:00 +26°C° 0.6 mm 6 m/s 750 mmHg 83%
    13:00 +26°C° 0.6 mm 6 m/s 749 mmHg 82%
    14:00 +26°C° 0.4 mm 6 m/s 749 mmHg 82%
    15:00 +26°C° 0.4 mm 6 m/s 749 mmHg 83%
    16:00 +24°C° 0.4 mm 6 m/s 748 mmHg 83%
    17:00 +24°C° 0.2 mm 6 m/s 749 mmHg 86%
    18:00 +23°C° 0.2 mm 5 m/s 750 mmHg 89%
    19:00 +22°C° 0.2 mm 5 m/s 750 mmHg 92%
    20:00 +22°C° 0.2 mm 5 m/s 751 mmHg 92%
    21:00 +22°C° 0.2 mm 5 m/s 751 mmHg 92%
    22:00 +22°C° 0.2 mm 5 m/s 751 mmHg 92%
    23:00 +22°C° 0.2 mm 5 m/s 751 mmHg 92%

    23 Ianuarie, Miercuri

    Timp Temperatura Precipitaţii Vânt Presiune Umiditate
    00:00 +21°C° 0.2 mm 5 m/s 751 mmHg 93%
    01:00 +21°C° 0.2 mm 4 m/s 750 mmHg 93%
    02:00 +21°C° 0.1 mm 4 m/s 750 mmHg 93%
    03:00 +21°C° 0.1 mm 4 m/s 750 mmHg 93%
    04:00 +21°C° 0.1 mm 4 m/s 750 mmHg 93%
    05:00 +21°C° 0.1 mm 4 m/s 750 mmHg 92%
    06:00 +21°C° 0.1 mm 4 m/s 750 mmHg 92%
    07:00 +21°C° 0.1 mm 4 m/s 751 mmHg 91%
    08:00 +23°C° 0.1 mm 5 m/s 751 mmHg 85%
    09:00 +25°C° 0.1 mm 5 m/s 751 mmHg 79%
    10:00 +26°C° 0.1 mm 5 m/s 752 mmHg 73%
    11:00 +27°C° 0.2 mm 5 m/s 751 mmHg 70%
    12:00 +27°C° 0.2 mm 5 m/s 750 mmHg 68%
    13:00 +28°C° 0.2 mm 6 m/s 749 mmHg 65%
    14:00 +27°C° 0.1 mm 6 m/s 749 mmHg 67%
    15:00 +27°C° 0.1 mm 5 m/s 749 mmHg 69%
    16:00 +26°C° 0.1 mm 5 m/s 748 mmHg 72%
    17:00 +25°C° 0.1 mm 5 m/s 749 mmHg 78%
    18:00 +23°C° 0.1 mm 5 m/s 750 mmHg 84%
    19:00 +21°C° 0.1 mm 5 m/s 750 mmHg 91%
    20:00 +21°C° 0.1 mm 5 m/s 751 mmHg 91%
    21:00 +21°C° 0.1 mm 5 m/s 751 mmHg 91%
    22:00 +21°C° 0.1 mm 5 m/s 751 mmHg 92%
    23:00 +21°C° 0.1 mm 5 m/s 751 mmHg 92%

    24 Ianuarie, Joi

    Timp Temperatura Precipitaţii Vânt Presiune Umiditate
    00:00 +20°C° 0.1 mm 5 m/s 750 mmHg 92%
    01:00 +20°C° 0.1 mm 5 m/s 750 mmHg 93%
    02:00 +20°C° 0 mm 4 m/s 750 mmHg 93%
    03:00 +20°C° 0 mm 4 m/s 749 mmHg 93%
    04:00 +20°C° 0 mm 4 m/s 749 mmHg 93%
    05:00 +20°C° 0 mm 4 m/s 750 mmHg 92%
    06:00 +20°C° 0 mm 4 m/s 750 mmHg 90%
    07:00 +20°C° 0 mm 4 m/s 751 mmHg 89%
    08:00 +22°C° 0 mm 4 m/s 751 mmHg 79%
    09:00 +26°C° 0 mm 5 m/s 752 mmHg 68%
    10:00 +28°C° 0 mm 5 m/s 752 mmHg 57%
    11:00 +28°C° 0 mm 5 m/s 751 mmHg 56%
    12:00 +29°C° 0 mm 5 m/s 750 mmHg 54%
    13:00 +30°C° 0 mm 5 m/s 749 mmHg 53%
    14:00 +29°C° 0 mm 5 m/s 749 mmHg 56%
    15:00 +28°C° 0 mm 5 m/s 749 mmHg 59%
    16:00 +28°C° 0 mm 5 m/s 748 mmHg 62%
    17:00 +26°C° 0 mm 5 m/s 749 mmHg 71%
    18:00 +23°C° 0 mm 5 m/s 750 mmHg 79%
    19:00 +22°C° 0 mm 5 m/s 750 mmHg 87%
    20:00 +22°C° 0.1 mm 5 m/s 751 mmHg 88%
    21:00 +21°C° 0.1 mm 4 m/s 751 mmHg 89%
    22:00 +21°C° 0.1 mm 4 m/s 751 mmHg 89%
    23:00 +21°C° 0.1 mm 4 m/s 751 mmHg 90%

    25 Ianuarie, Vineri

    Timp Temperatura Precipitaţii Vânt Presiune Umiditate
    00:00 +21°C° 0.1 mm 4 m/s 750 mmHg 91%
    01:00 +21°C° 0.1 mm 4 m/s 750 mmHg 91%
    02:00 +21°C° 0 mm 4 m/s 750 mmHg 92%
    03:00 +21°C° 0 mm 4 m/s 750 mmHg 92%
    04:00 +21°C° 0 mm 4 m/s 750 mmHg 92%
    05:00 +21°C° 0 mm 4 m/s 750 mmHg 91%
    06:00 +21°C° 0 mm 4 m/s 751 mmHg 90%
    07:00 +21°C° 0 mm 4 m/s 751 mmHg 88%
    08:00 +23°C° 0 mm 4 m/s 751 mmHg 79%
    09:00 +26°C° 0 mm 5 m/s 751 mmHg 70%
    10:00 +28°C° 0 mm 5 m/s 752 mmHg 61%
    11:00 +28°C° 0 mm 5 m/s 751 mmHg 59%
    12:00 +29°C° 0 mm 5 m/s 750 mmHg 58%
    13:00 +30°C° 0 mm 5 m/s 750 mmHg 57%
    14:00 +29°C° 0 mm 6 m/s 749 mmHg 60%
    15:00 +28°C° 0 mm 6 m/s 749 mmHg 63%
    16:00 +27°C° 0 mm 6 m/s 749 mmHg 67%
    17:00 +26°C° 0 mm 6 m/s 750 mmHg 72%
    18:00 +25°C° 0 mm 5 m/s 750 mmHg 77%
    19:00 +22°C° 0 mm 5 m/s 751 mmHg 82%
    20:00 +22°C° 0 mm 5 m/s 751 mmHg 83%
    21:00 +22°C° 0 mm 5 m/s 752 mmHg 85%
    22:00 +21°C° 0 mm 5 m/s 752 mmHg 86%
    23:00 +21°C° 0 mm 5 m/s 751 mmHg 87%
    Arată mai mult